| time (UTC) | temp C | wind direction | speed KPH | gust KPH | rain 1hr cm | rain 24hr cm | rain mn cm | humidity % | barometer mb |
| 20260906151534 | 19 | 51 | 0.0 | 11.3 | 0.00 | 0.00 | 0.00 | 100 | 1016.5 |
| 20260906150032 | 19 | 40 | 0.0 | 4.8 | 0.00 | 0.00 | 0.00 | 100 | 1016.7 |
| 20260906144531 | 19 | 57 | 0.0 | 4.8 | 0.00 | 0.00 | 0.00 | 100 | 1016.5 |
| 20260906143028 | 19 | 10 | 0.0 | 9.7 | 0.00 | 0.00 | 0.00 | 100 | 1016.7 |
| 20260906141515 | 19 | 52 | 0.0 | 3.2 | 0.00 | 0.00 | 0.00 | 100 | 1016.8 |
| 20260906140018 | 19 | 322 | 0.0 | 8.0 | 0.00 | 0.00 | 0.00 | 100 | 1016.9 |
| 20260906134510 | 19 | 31 | 0.0 | 3.2 | 0.00 | 0.00 | 0.00 | 100 | 1016.8 |
| 20260906133006 | 19 | 48 | 0.0 | 8.0 | 0.00 | 0.00 | 0.00 | 100 | 1016.7 |
| 20260906131601 | 19 | 323 | 0.0 | 0.0 | 0.00 | 0.00 | 0.00 | 100 | 1016.8 |
| 20260906130056 | -17 | 316 | 0.0 | 0.0 | 0.00 | 0.00 | 0.00 | 1016.4 | |
| 20260906124552 | -17 | 44 | 0.0 | 9.7 | 0.00 | 0.00 | 0.00 | 1016.1 | |
| 20260906123047 | -17 | 319 | 0.0 | 1.6 | 0.00 | 0.00 | 0.00 | 1016.0 | |
| 20260906121545 | -17 | 274 | 0.0 | 4.8 | 0.00 | 0.00 | 0.00 | 1015.8 | |
| 20260906120040 | -17 | 15 | 0.0 | 3.2 | 0.00 | 0.00 | 0.00 | 1015.4 | |
| 20260906114534 | -17 | 24 | 0.0 | 9.7 | 0.00 | 0.00 | 0.00 | 1015.3 | |
| 20260906113030 | -17 | 206 | 0.0 | 0.0 | 0.00 | 0.00 | 0.00 | 1015.3 | |
| 20260906111524 | -17 | 29 | 0.0 | 0.0 | 0.00 | 0.00 | 0.00 | 1015.3 | |
| 20260906110020 | -17 | 46 | 0.0 | 4.8 | 0.00 | 0.00 | 0.00 | 1015.4 | |
| 20260906104530 | -17 | 36 | 0.0 | 3.2 | 0.00 | 0.00 | 0.00 | 1015.5 | |
| 20260906103012 | -17 | 39 | 0.0 | 0.0 | 0.00 | 0.00 | 0.00 | 1015.4 | |
| 20260906101507 | 18 | 39 | 0.0 | 0.0 | 0.00 | 0.00 | 0.00 | 100 | 1015.6 |
| 20260906100005 | 18 | 39 | 0.0 | 8.0 | 0.00 | 0.00 | 0.00 | 100 | 1015.3 |
| 20260906094602 | 18 | 180 | 0.0 | 1.6 | 0.00 | 0.00 | 0.00 | 100 | 1015.4 |
| 20260906093054 | 18 | 339 | 0.0 | 0.0 | 0.00 | 0.00 | 0.00 | 100 | 1015.2 |
| 20260906091550 | 18 | 341 | 0.0 | 0.0 | 0.00 | 0.00 | 0.00 | 100 | 1015.1 |
| 20260906090053 | 18 | 340 | 0.0 | 0.0 | 0.00 | 0.00 | 0.00 | 100 | 1015.1 |
| 20260906084548 | 18 | 341 | 0.0 | 0.0 | 0.00 | 0.00 | 0.00 | 100 | 1014.8 |
| 20260906083039 | 18 | 360 | 0.0 | 0.0 | 0.00 | 0.00 | 0.00 | 100 | 1014.7 |
| 20260906081537 | 18 | 360 | 0.0 | 0.0 | 0.00 | 0.00 | 0.00 | 100 | 1014.8 |
| 20260906080036 | 19 | 313 | 0.0 | 0.0 | 0.00 | 0.00 | 0.00 | 100 | 1014.7 |
| 20260906074530 | 19 | 118 | 0.0 | 0.0 | 0.00 | 0.00 | 0.00 | 100 | 1014.7 |
| 20260906073034 | 19 | 128 | 0.0 | 0.0 | 0.00 | 0.00 | 0.00 | 100 | 1014.8 |
| 20260906071520 | 19 | 134 | 0.0 | 0.0 | 0.00 | 0.00 | 0.00 | 100 | 1014.7 |
| 20260906070015 | 19 | 132 | 0.0 | 0.0 | 0.00 | 0.00 | 0.00 | 100 | 1015.0 |
| 20260906064514 | 20 | 136 | 0.0 | 0.0 | 0.00 | 0.00 | 0.00 | 100 | 1015.1 |
| 20260906063007 | 20 | 329 | 0.0 | 0.0 | 0.00 | 0.00 | 0.00 | 100 | 1015.1 |
| 20260906061502 | 20 | 189 | 0.0 | 1.6 | 0.00 | 0.00 | 0.00 | 100 | 1015.1 |
| 20260906060058 | 20 | 243 | 0.0 | 0.0 | 0.00 | 0.00 | 0.00 | 100 | 1015.2 |
| 20260906054552 | 20 | 34 | 0.0 | 6.4 | 0.00 | 0.00 | 0.00 | 100 | 1015.2 |
| 20260906053053 | 20 | 360 | 0.0 | 0.0 | 0.00 | 0.00 | 0.00 | 100 | 1015.2 |
| 20260906051544 | 20 | 5 | 0.0 | 0.0 | 0.00 | 0.00 | 0.00 | 100 | 1015.1 |
| 20260906050042 | 20 | 26 | 0.0 | 0.0 | 0.00 | 0.00 | 0.00 | 100 | 1014.9 |
| 20260906044535 | 21 | 25 | 0.0 | 0.0 | 0.00 | 0.00 | 0.00 | 100 | 1014.9 |
| 20260906043032 | 21 | 355 | 0.0 | 0.0 | 0.00 | 0.00 | 0.00 | 100 | 1014.7 |
| 20260906041526 | 21 | 355 | 0.0 | 0.0 | 0.00 | 0.00 | 0.00 | 100 | 1014.6 |
| 20260906040028 | 21 | 11 | 0.0 | 0.0 | 0.00 | 0.00 | 0.00 | 100 | 1014.7 |
| 20260906034531 | 21 | 24 | 0.0 | 0.0 | 0.00 | 0.00 | 0.00 | 100 | 1014.5 |
| 20260906033024 | 21 | 17 | 0.0 | 0.0 | 0.00 | 0.00 | 0.00 | 100 | 1014.7 |
| 20260906031511 | 21 | 17 | 0.0 | 0.0 | 0.00 | 0.00 | 0.00 | 100 | 1014.7 |
| 20260906030006 | 21 | 31 | 0.0 | 0.0 | 0.00 | 0.00 | 0.00 | 100 | 1014.7 |
| 20260906024502 | 21 | 32 | 0.0 | 0.0 | 0.00 | 0.00 | 0.00 | 100 | 1014.7 |
| 20260906023058 | 21 | 41 | 0.0 | 0.0 | 0.00 | 0.00 | 0.00 | 100 | 1014.5 |
| 20260906021553 | 21 | 41 | 0.0 | 0.0 | 0.00 | 0.00 | 0.00 | 100 | 1014.5 |
| 20260906020050 | 22 | 41 | 0.0 | 0.0 | 0.00 | 0.00 | 0.00 | 100 | 1014.1 |
| 20260906014559 | 22 | 41 | 0.0 | 0.0 | 0.00 | 0.00 | 0.00 | 100 | 1013.8 |
| 20260906013043 | 22 | 41 | 0.0 | 0.0 | 0.00 | 0.00 | 0.00 | 100 | 1013.5 |
| 20260906011540 | 22 | 55 | 0.0 | 0.0 | 0.00 | 0.00 | 0.00 | 100 | 1013.5 |
| 20260906010030 | 23 | 55 | 0.0 | 0.0 | 0.00 | 0.00 | 0.00 | 13 | 1013.3 |
| 20260906004535 | 23 | 55 | 0.0 | 0.0 | 0.00 | 0.00 | 0.00 | 26 | 1013.3 |
| 20260906003032 | 24 | 55 | 0.0 | 0.0 | 0.00 | 0.00 | 0.00 | 32 | 1013.3 |
| 20260906001518 | 24 | 55 | 0.0 | 0.0 | 0.00 | 0.00 | 0.00 | 41 | 1013.1 |
| 20260906000013 | 25 | 55 | 0.0 | 0.0 | 0.00 | 0.00 | 0.00 | 46 | 1012.9 |
| 20260905234508 | 25 | 360 | 0.0 | 0.0 | 0.00 | 0.00 | 0.00 | 57 | 1012.8 |
| 20260905233006 | 26 | 360 | 0.0 | 0.0 | 0.00 | 0.00 | 0.00 | 62 | 1012.8 |
| 20260905231559 | 26 | 360 | 0.0 | 0.0 | 0.00 | 0.00 | 0.00 | 66 | 1012.6 |
| 20260905230054 | 26 | 348 | 0.0 | 0.0 | 0.00 | 0.00 | 0.00 | 65 | 1012.6 |
| 20260905224550 | 26 | 342 | 0.0 | 9.7 | 0.00 | 0.00 | 0.00 | 68 | 1012.4 |
| 20260905223045 | 27 | 10 | 0.0 | 0.0 | 0.00 | 0.00 | 0.00 | 61 | 1012.1 |
| 20260905221542 | 27 | 32 | 0.0 | 6.4 | 0.00 | 0.00 | 0.00 | 63 | 1012.2 |
| 20260905220044 | 27 | 9 | 0.0 | 11.3 | 0.00 | 0.00 | 0.00 | 57 | 1012.0 |
| 20260905214532 | 27 | 21 | 0.0 | 3.2 | 0.00 | 0.00 | 0.00 | 59 | 1012.0 |
| 20260905213038 | 27 | 31 | 0.0 | 8.0 | 0.00 | 0.00 | 0.00 | 56 | 1012.0 |
| 20260905211522 | 27 | 15 | 0.0 | 9.7 | 0.00 | 0.00 | 0.00 | 54 | 1012.3 |
| 20260905210018 | 27 | 360 | 0.0 | 11.3 | 0.00 | 0.00 | 0.00 | 52 | 1012.4 |
| 20260905204517 | 27 | 62 | 0.0 | 9.7 | 0.00 | 0.00 | 0.00 | 54 | 1012.4 |
| 20260905203009 | 27 | 19 | 0.0 | 14.5 | 0.00 | 0.00 | 0.00 | 53 | 1012.4 |
| 20260905201504 | 27 | 59 | 1.6 | 9.7 | 0.00 | 0.00 | 0.00 | 49 | 1012.4 |
| 20260905200106 | 26 | 360 | 3.2 | 9.7 | 0.00 | 0.00 | 0.00 | 45 | 1012.3 |
| 20260905194555 | 26 | 37 | 0.0 | 6.4 | 0.00 | 0.00 | 0.00 | 46 | 1012.5 |
| 20260905193105 | 27 | 17 | 0.0 | 9.7 | 0.00 | 0.00 | 0.00 | 53 | 1012.7 |
| 20260905191553 | 27 | 57 | 0.0 | 14.5 | 0.00 | 0.00 | 0.00 | 57 | 1013.4 |
| 20260905190044 | 27 | 36 | 11.3 | 25.7 | 0.00 | 0.00 | 0.00 | 61 | 1011.9 |
| 20260905184537 | 26 | 17 | 12.9 | 20.9 | 0.00 | 0.00 | 0.00 | 56 | 1012.1 |
| 20260905183035 | 26 | 360 | 6.4 | 20.9 | 0.00 | 0.00 | 0.00 | 49 | 1011.9 |
| 20260905181534 | 26 | 26 | 4.8 | 17.7 | 0.00 | 0.00 | 0.00 | 41 | 1013.4 |
| 20260905180022 | 25 | 36 | 12.9 | 17.7 | 0.00 | 0.00 | 0.00 | 42 | 1014.0 |
| 20260905174518 | 25 | 14 | 8.0 | 14.5 | 0.00 | 0.00 | 0.00 | 15 | 1014.4 |
| 20260905173016 | 25 | 360 | 14.5 | 19.3 | 0.00 | 0.00 | 0.00 | 100 | 1014.1 |
| 20260905171522 | 23 | 342 | 11.3 | 16.1 | 0.00 | 0.00 | 0.00 | 100 | 1014.6 |
| 20260905170005 | 23 | 288 | 0.0 | 9.7 | 0.00 | 0.00 | 0.00 | 100 | 1014.8 |
| 20260905164601 | 22 | 309 | 8.0 | 17.7 | 0.00 | 0.00 | 0.00 | 100 | 1015.2 |
| 20260905163055 | 22 | 235 | 12.9 | 20.9 | 0.00 | 0.00 | 0.00 | 100 | 1015.5 |
| 20260905161550 | 23 | 5 | 0.0 | 0.0 | 0.00 | 0.00 | 0.00 | 100 | 1015.0 |
| 20260905160050 | 22 | 5 | 0.0 | 0.0 | 0.00 | 0.00 | 0.00 | 100 | 1014.9 |
| 20260905154554 | 22 | 5 | 0.0 | 1.6 | 0.00 | 0.00 | 0.00 | 100 | 1014.7 |
| 20260905153042 | 22 | 5 | 0.0 | 1.6 | 0.00 | 0.00 | 0.00 | 100 | 1014.7 |